Time,TemperatureF,DewpointF,PressureIn,WindDirection,WindDirectionDegrees,WindSpeedMPH,WindSpeedGustMPH,Humidity,HourlyPrecipIn,Conditions,Clouds,dailyrainin,SoftwareType,DateUTC
2014-07-24 00:43:00,50.0,50.0,-100.00,East,85,2.0,2.0,99,-99.99,,,-99.99,,2014-07-24 05:43:00,
2014-07-24 00:52:00,50.0,50.0,-100.00,East,85,2.0,2.0,99,-99.99,,,-99.99,,2014-07-24 05:52:00,
2014-07-24 01:02:00,50.0,50.0,-100.00,East,85,2.0,2.0,99,-99.99,,,-99.99,,2014-07-24 06:02:00,
2014-07-24 01:32:00,48.0,48.0,-100.00,NE,50,1.0,2.0,99,-99.99,,,-99.99,,2014-07-24 06:32:00,
2014-07-24 02:22:00,46.0,46.0,-100.00,East,85,0.0,1.0,99,-99.99,,,-99.99,,2014-07-24 07:22:00,
2014-07-24 02:32:00,46.0,46.0,-100.00,East,85,0.0,1.0,99,-99.99,,,-99.99,,2014-07-24 07:32:00,
2014-07-24 02:52:00,46.0,46.0,-100.00,East,85,0.0,1.0,99,-99.99,,,-99.99,,2014-07-24 07:52:00,
2014-07-24 03:02:00,46.0,46.0,-100.00,East,85,0.0,1.0,99,-99.99,,,-99.99,,2014-07-24 08:02:00,
2014-07-24 03:42:00,45.0,44.0,-100.00,East,85,1.0,2.0,99,-99.99,,,-99.99,,2014-07-24 08:42:00,
2014-07-24 03:53:00,45.0,44.0,-100.00,East,85,1.0,2.0,99,-99.99,,,-99.99,,2014-07-24 08:53:00,
2014-07-24 04:02:00,45.0,44.0,-100.00,East,85,1.0,2.0,99,-99.99,,,-99.99,,2014-07-24 09:02:00,
2014-07-24 04:33:00,43.0,43.0,-100.00,East,80,0.0,1.0,99,-99.99,,,-99.99,,2014-07-24 09:33:00,
2014-07-24 04:44:00,43.0,43.0,-100.00,East,80,0.0,1.0,99,-99.99,,,-99.99,,2014-07-24 09:44:00,
2014-07-24 04:53:00,43.0,43.0,-100.00,East,80,0.0,1.0,99,-99.99,,,-99.99,,2014-07-24 09:53:00,
2014-07-24 05:03:00,43.0,43.0,-100.00,East,80,0.0,1.0,99,-99.99,,,-99.99,,2014-07-24 10:03:00,
2014-07-24 05:33:00,43.0,42.0,-100.00,NE,50,1.0,2.0,99,-99.99,,,-99.99,,2014-07-24 10:33:00,
2014-07-24 06:03:00,43.0,42.0,-100.00,NE,50,1.0,2.0,99,-99.99,,,-99.99,,2014-07-24 11:03:00,
2014-07-24 06:33:00,43.0,42.0,-100.00,East,80,0.0,1.0,99,-99.99,,,-99.99,,2014-07-24 11:33:00,
2014-07-24 06:43:00,43.0,42.0,-100.00,East,80,0.0,1.0,99,-99.99,,,-99.99,,2014-07-24 11:43:00,
2014-07-24 06:53:00,43.0,42.0,-100.00,East,80,0.0,1.0,99,-99.99,,,-99.99,,2014-07-24 11:53:00,
2014-07-24 07:32:00,50.0,49.0,-100.00,WSW,250,0.0,1.0,99,-99.99,,,-99.99,,2014-07-24 12:32:00,
2014-07-24 07:43:00,50.0,49.0,-100.00,WSW,250,0.0,1.0,99,-99.99,,,-99.99,,2014-07-24 12:43:00,
2014-07-24 07:52:00,50.0,49.0,-100.00,WSW,250,0.0,1.0,99,-99.99,,,-99.99,,2014-07-24 12:52:00,
2014-07-24 08:01:00,50.0,49.0,-100.00,WSW,250,0.0,1.0,99,-99.99,,,-99.99,,2014-07-24 13:01:00,
2014-07-24 08:42:00,60.0,60.0,-100.00,West,260,1.0,3.0,99,-99.99,,,-99.99,,2014-07-24 13:42:00,
2014-07-24 09:02:00,60.0,60.0,-100.00,West,260,1.0,3.0,99,-99.99,,,-99.99,,2014-07-24 14:02:00,
2014-07-24 09:33:00,66.0,66.0,-100.00,SSW,195,2.0,7.0,99,-99.99,,,-99.99,,2014-07-24 14:33:00,
2014-07-24 09:43:00,66.0,66.0,-100.00,SSW,195,2.0,7.0,99,-99.99,,,-99.99,,2014-07-24 14:43:00,
2014-07-24 09:53:00,66.0,66.0,-100.00,SSW,195,2.0,7.0,99,-99.99,,,-99.99,,2014-07-24 14:53:00,
2014-07-24 10:54:00,71.0,70.0,-100.00,SE,135,1.0,6.0,99,-99.99,,,-99.99,,2014-07-24 15:54:00,
2014-07-24 11:04:00,71.0,70.0,-100.00,SE,135,1.0,6.0,99,-99.99,,,-99.99,,2014-07-24 16:04:00,
2014-07-24 11:34:00,72.0,72.0,-100.00,SE,145,2.0,9.0,99,-99.99,,,-99.99,,2014-07-24 16:34:00,
2014-07-24 11:43:00,72.0,72.0,-100.00,SE,145,2.0,9.0,99,-99.99,,,-99.99,,2014-07-24 16:43:00,
2014-07-24 12:03:00,72.0,72.0,-100.00,SE,145,2.0,9.0,99,-99.99,,,-99.99,,2014-07-24 17:03:00,
2014-07-24 12:44:00,73.0,73.0,-100.00,WNW,290,6.0,11.0,99,-99.99,,,-99.99,,2014-07-24 17:44:00,
2014-07-24 13:03:00,73.0,73.0,-100.00,WSW,245,4.0,11.0,99,-99.99,,,-99.99,,2014-07-24 18:03:00,
2014-07-24 13:33:00,73.0,73.0,-100.00,WSW,245,4.0,11.0,99,-99.99,,,-99.99,,2014-07-24 18:33:00,
2014-07-24 13:52:00,73.0,73.0,-100.00,WSW,245,4.0,11.0,99,-99.99,,,-99.99,,2014-07-24 18:52:00,
2014-07-24 14:32:00,75.0,75.0,-100.00,NNE,20,1.0,7.0,99,-99.99,,,-99.99,,2014-07-24 19:32:00,
2014-07-24 14:42:00,75.0,75.0,-100.00,NNE,20,1.0,7.0,99,-99.99,,,-99.99,,2014-07-24 19:42:00,
2014-07-24 15:32:00,75.0,75.0,-100.00,SW,215,1.0,10.0,99,-99.99,,,-99.99,,2014-07-24 20:32:00,
2014-07-24 15:42:00,75.0,75.0,-100.00,SW,215,1.0,10.0,99,-99.99,,,-99.99,,2014-07-24 20:42:00,
2014-07-24 17:33:00,75.0,75.0,-100.00,SSE,165,1.0,9.0,99,-99.99,,,-99.99,,2014-07-24 22:33:00,
2014-07-24 17:43:00,75.0,75.0,-100.00,SSE,165,1.0,9.0,99,-99.99,,,-99.99,,2014-07-24 22:43:00,
2014-07-24 17:53:00,75.0,75.0,-100.00,SSE,165,1.0,9.0,99,-99.99,,,-99.99,,2014-07-24 22:53:00,
2014-07-24 18:02:00,75.0,75.0,-100.00,SSE,165,1.0,9.0,99,-99.99,,,-99.99,,2014-07-24 23:02:00,
2014-07-24 18:42:00,72.0,72.0,-100.00,SSW,205,4.0,7.0,99,-99.99,,,-99.99,,2014-07-24 23:42:00,
2014-07-24 18:53:00,72.0,72.0,-100.00,SSW,205,4.0,7.0,99,-99.99,,,-99.99,,2014-07-24 23:53:00,
2014-07-24 19:32:00,70.0,69.0,-100.00,SSW,195,1.0,5.0,99,-99.99,,,-99.99,,2014-07-25 00:32:00,
2014-07-24 19:42:00,70.0,69.0,-100.00,SSW,195,1.0,5.0,99,-99.99,,,-99.99,,2014-07-25 00:42:00,
2014-07-24 19:53:00,70.0,69.0,-100.00,SSW,195,1.0,5.0,99,-99.99,,,-99.99,,2014-07-25 00:53:00,
2014-07-24 20:02:00,70.0,69.0,-100.00,SSW,195,1.0,5.0,99,-99.99,,,-99.99,,2014-07-25 01:02:00,
2014-07-24 20:43:00,65.0,65.0,-100.00,SSE,150,2.0,4.0,99,-99.99,,,-99.99,,2014-07-25 01:43:00,
2014-07-24 20:54:00,65.0,65.0,-100.00,SSE,150,2.0,4.0,99,-99.99,,,-99.99,,2014-07-25 01:54:00,
2014-07-24 21:02:00,65.0,65.0,-100.00,SSE,150,2.0,4.0,99,-99.99,,,-99.99,,2014-07-25 02:02:00,
2014-07-24 21:52:00,60.0,59.0,-100.00,East,90,0.0,1.0,99,-99.99,,,-99.99,,2014-07-25 02:52:00,
2014-07-24 22:03:00,57.0,56.0,-100.00,NE,55,0.0,1.0,99,-99.99,,,-99.99,,2014-07-25 03:03:00,
2014-07-24 22:34:00,57.0,56.0,-100.00,NE,55,0.0,1.0,99,-99.99,,,-99.99,,2014-07-25 03:34:00,
2014-07-24 22:54:00,57.0,56.0,-100.00,NE,55,0.0,1.0,99,-99.99,,,-99.99,,2014-07-25 03:54:00,
2014-07-24 23:34:00,56.0,55.0,-100.00,East,85,1.0,2.0,99,-99.99,,,-99.99,,2014-07-25 04:34:00,